Location: Bílinka
(49.3579°N, 14.3767°E)
Time: 18:57:41
(UTC+00:00)

Daily predictions for brighter satellites

Satellite Brightness Start Highest point End
(mag) Time Altitude Azimuth Time Altitude Azimuth Time Altitude Azimuth
Cosmos 2297 Rocket 3.4 16:17:21 10° NW 16:22:48 50° WSW 16:28:13 10° S
Okean 1 Rocket 4.2 16:20:01 10° NNW 16:24:23 51° W 16:28:43 10° S
Cosmos 1238 Rocket 3.4 16:23:37 10° N 16:27:59 56° ENE 16:33:10 10° SSE
Cosmos 2227 Rocket 2.7 16:23:47 10° NNW 16:29:27 69° WSW 16:35:03 10° SSE
COBE Rocket 3.8 16:25:31 10° SSE 16:30:20 83° ENE 16:35:04 10° N
Cosmos 1455 2.6 16:29:31 10° NNW 16:33:17 68° W 16:37:01 10° S
YAOGAN 1 3.9 16:30:34 10° ESE 16:33:38 19° ENE 16:36:43 10° NNE
Cosmos 2369 Rocket 4.5 16:32:07 10° NW 16:34:17 12° NNW 16:36:28 10° N
Cosmos 1703 3.8 16:33:40 10° SSE 16:37:10 36° E 16:40:42 10° NNE
SL-16 R/B 4.0 16:37:20 10° ESE 16:38:09 10° E 16:38:59 10° E
COSMOS 2455 3.4 16:33:07 10° S 16:38:37 39° ESE 16:44:10 10° NE
Cosmos 1975 Rocket 3.1 16:34:19 10° S 16:38:45 66° E 16:43:11 10° NNE
SL-08 RB Rocket 4.0 16:34:17 10° S 16:38:54 79° WSW 16:43:35 10° NNW
CZ-4 R/B 3.1 16:39:08 10° E 16:41:28 15° ENE 16:43:45 10° NNE
Cosmos 1025 Rocket 2.9 16:38:24 10° S 16:42:38 76° E 16:46:56 10° NNE
Radarsat Rocket 4.0 16:38:50 10° SSE 16:44:44 78° ENE 16:51:15 10° NNW
Cosmos 2369 4.1 16:40:45 10° S 16:46:05 45° ESE 16:51:27 10° NE
Cosmos 1184 Rocket 4.0 16:45:22 10° NNE 16:46:17 14° NE 16:46:17 14° NE
Cosmos 2219 3.7 16:41:57 10° NNW 16:47:32 65° WSW 16:53:04 10° SSE
Cosmos 44 3.5 16:45:35 10° S 16:49:39 42° ESE 16:53:34 12° NE
Cosmos 1634 Rocket 4.4 16:46:42 10° SSW 16:52:56 68° WNW 16:59:09 10° N
Cosmos 2251 Rocket 4.2 16:49:19 10° SSE 16:54:08 36° ESE 16:59:01 10° NE
Cosmos 1980 Rocket 2.4 16:52:01 10° S 16:57:30 54° ESE 17:03:02 10° NE
Meteor PRIRODA 4.2 16:54:05 10° S 16:57:35 59° W 17:01:07 10° NNW
USA 281 4.3 16:51:33 10° NNE 16:57:39 42° NW 17:03:44 10° WSW
DMSP B5D2-2 4.1 16:53:59 10° NNE 16:59:18 74° ESE 17:04:33 10° S
Cosmos 2180 Rocket 4.4 16:54:41 10° S 17:00:49 74° E 17:06:56 10° NNE
COSMO-SKYMED 1 2.7 16:56:54 10° NNE 17:01:11 52° E 17:05:25 10° S
Cosmos 1697 Rocket 2.9 16:59:51 10° SW 17:05:30 74° WNW 17:11:12 10° NNE
Cosmos 2266 Rocket 4.0 16:59:29 10° N 17:05:51 70° ENE 17:12:03 10° SSE
CZ-4B R/B 3.3 17:02:35 10° S 17:06:48 67° WSW 17:10:49 10° NNW
NOSS 2-1 (C) 3.7 17:04:31 10° NW 17:08:41 73° NE 17:14:34 10° SE
BlueWalker 3 2.3 17:06:01 10° SW 17:09:46 51° SSE 17:12:01 22° E
Lacrosse 5 rocket 2.5 17:08:22 10° NW 17:11:19 23° N 17:12:59 17° NE
Timation 2 Rocket 4.0 17:06:18 10° NNW 17:12:24 61° NE 17:18:43 10° SE
Okean O Rocket 2.4 17:11:09 10° ESE 17:14:52 28° ENE 17:18:39 10° N
PSLV R/B 3.9 17:11:36 10° SE 17:15:04 44° ENE 17:18:36 10° N
Cosmos 2263 Rocket 2.1 17:09:37 10° NNW 17:15:14 82° ENE 17:20:49 10° SSE
ATLAS 5 CENTAUR R/B 2.8 17:13:19 10° W 17:16:41 29° NNW 17:20:15 11° NNE
NOSS 2-1 (D) 3.8 17:12:49 10° NW 17:17:01 83° NE 17:22:55 10° SE
SOZ 4.5 17:18:30 10° W 17:22:01 65° NNW 17:22:40 41° NE
Meteor 1-21 Rocket 4.2 17:17:15 10° S 17:22:50 59° E 17:28:21 10° NNE
CZ-4C R/B 3.2 17:19:12 10° NNE 17:23:14 76° ESE 17:27:02 10° S
Cosmos 1763 Rocket 4.2 17:18:49 10° N 17:23:31 32° NE 17:25:53 22° E
Cosmos 2082 4.3 17:18:00 10° NW 17:23:33 60° WSW 17:29:03 10° S
SL-08 R/B 4.2 17:19:35 10° N 17:24:22 52° WNW 17:29:10 10° SW
Cosmos 1544 Rocket 3.9 17:20:47 10° NNW 17:25:04 66° W 17:29:21 10° S
Cosmos 2228 3.0 17:21:29 10° N 17:25:40 53° ENE 17:29:48 10° SSE
CZ-4B DEB 4.2 17:20:30 10° SSE 17:25:57 87° WSW 17:31:28 10° NNW
ATLAS 2AS CENTAUR R/B 2.9 17:22:40 10° NW 17:29:39 52° NE 17:34:03 21° ESE
Cosmos 1726 Rocket 4.4 17:26:34 10° N 17:29:56 28° ENE 17:29:56 28° ENE
Meteor 2-1 Rocket 4.2 17:30:13 10° N 17:36:06 74° ENE 17:41:47 10° SSE
ISS -3.8 17:32:56 10° WNW 17:36:18 72° NNE 17:37:02 50° E
CZ-4B R/B 3.1 17:31:15 10° SSE 17:36:30 65° ENE 17:41:51 10° N
Cosmos 2227 4.2 17:32:21 10° NNW 17:38:08 71° ENE 17:43:53 10° SE
ATLAS CENTAUR R/B 1.6 17:38:49 10° SSW 17:43:30 64° SE 17:45:17 36° ENE
Cosmos 1844 4.4 17:39:11 10° NNW 17:44:28 34° NE 17:45:38 31° ENE
Cosmos 407 Rocket 3.4 17:41:42 10° S 17:46:49 68° ESE 17:50:15 21° NNE
IGS 5A 4.3 17:49:11 31° NNE 17:49:11 31° NNE 17:51:53 10° N
Cosmos 1844 Rocket 3.1 17:42:58 10° NNW 17:48:12 39° NE 17:49:18 35° ENE
Cosmos 2278 3.6 17:42:53 10° SSW 17:48:30 67° ESE 17:52:09 23° NE
SKYMED 2 4.3 17:45:02 10° N 17:49:16 53° WNW 17:53:29 10° SSW
MOS 1-B 4.3 17:45:03 10° SSE 17:50:50 88° ENE 17:56:41 10° NNW
Cosmos 540 Rocket 4.0 17:50:49 10° N 17:55:34 38° NE 17:55:34 38° NE
SL-4 R/B 1.5 17:54:53 10° WSW 17:58:25 89° SSE 17:58:33 82° E
Cosmos 1340 Rocket 3.1 17:55:44 10° SSW 17:59:33 62° WNW 18:02:48 14° N
Cosmos 1408 2.4 17:56:35 10° SSW 17:59:58 75° W 18:00:40 52° N
Cosmos 1190 Rocket 4.0 17:55:21 10° S 18:00:32 58° ESE 18:02:11 40° NE
USA 290 2.7 17:58:32 10° SW 18:01:44 59° WNW 18:02:01 56° NW
Cosmos 2278 Rocket 4.2 17:59:41 10° N 18:01:49 13° NNE 18:01:49 13° NNE
Cosmos 2360 Rocket 4.2 17:58:51 10° SSE 17:59:31 13° SSE 17:59:31 13° SSE
BREEZE-M DEB (TANK) 3.2 18:01:45 10° WSW 18:05:10 63° S 18:07:22 38° ESE
Meteor 1-27 4.4 18:00:41 10° N 18:06:21 49° ENE 18:07:17 45° E
YAOGAN 1 3.2 18:05:06 10° S 18:09:20 56° W 18:13:36 10° NNW
Cosmos 2322 Rocket 3.0 18:05:48 10° S 18:09:28 33° SE 18:09:28 33° SE
Cosmos 1140 Rocket 3.8 18:07:18 10° SSW 18:12:28 67° WNW 18:16:04 20° NNE
Cosmos 1607 3.9 18:06:48 10° SW 18:12:56 79° NW 18:16:06 31° NNE
CZ-4 R/B 1.6 18:11:41 10° S 18:15:50 73° WSW 18:19:57 10° NNW
DMSP B5D1-3 4.4 18:12:00 10° NNE 18:17:03 90° E 18:22:10 10° SSW
Cosmos 724 4.2 18:11:50 10° SSW 18:17:45 83° SE 18:19:49 44° NE
SL-16 R/B 2.1 18:15:31 10° SSW 18:21:06 64° ESE 18:21:31 62° E
Cosmos 1244 Rocket 4.4 18:15:13 10° N 18:21:38 88° ENE 18:27:57 10° S
Gblst 52 Del rocket 4.4 18:17:48 10° SW 18:22:59 48° SSE 18:22:59 48° SSE
COSMOS 2455 3.6 18:18:39 10° WSW 18:24:29 49° NW 18:28:06 23° NNE
APEX 4.1 18:19:28 10° SSW 18:25:35 75° ESE 18:26:40 59° NE
In-Cosmos 22 Rocket 4.1 18:23:24 10° S 18:29:10 79° E 18:32:51 24° NNE
Meteor 2-12 Rocket 4.4 18:24:12 10° N 18:30:20 86° W 18:36:24 10° S
Cosmos 1892 3.8 18:26:54 10° SSW 18:29:28 38° SW 18:29:28 38° SW
Cosmos 44 4.4 18:26:57 10° WSW 18:30:56 33° NW 18:32:00 30° N
Cosmos 1606 Rocket 4.1 18:29:24 10° NNW 18:33:37 54° W 18:35:45 27° SSW
IRIDIUM 104 4.2 18:29:20 10° N 18:34:35 88° W 18:36:10 47° S
Cosmos 1745 Rocket 4.1 18:29:23 10° N 18:34:50 56° NE 18:34:50 56° NE
Cosmos 2237 4.3 18:30:11 10° SSW 18:34:56 58° SSE 18:34:56 58° SSE
RESURS DK-1 4.5 18:32:04 10° NNW 18:33:19 18° NNW 18:33:19 18° NNW
CSL-04 Debris 4.0 18:37:12 79° SE 18:37:33 86° ENE 18:43:00 10° NNW
Cosmos 468 Rocket 3.9 18:32:52 10° NNW 18:37:59 85° WNW 18:37:59 85° WNW
Cosmos 1954 Rocket 4.3 18:35:52 10° SSW 18:40:04 58° SSW 18:40:04 58° SSW
Cosmos 1980 Rocket 3.7 18:36:42 10° WSW 18:41:47 33° NW 18:45:36 16° N
IRIDIUM 114 4.4 18:38:29 10° N 18:43:42 75° W 18:45:21 44° SSW
Lacrosse 5 3.7 18:40:36 10° SSW 18:42:20 20° S 18:42:20 20° S
BlueWalker 3 3.7 18:44:35 10° W 18:46:49 31° WNW 18:46:49 31° WNW
CSL-04 Rocket 3.8 18:50:18 65° NNW 18:50:18 65° NNW 18:54:52 10° NNW
Lacrosse 5 rocket 3.6 18:47:28 10° NW 18:48:24 16° NW 18:48:24 16° NW
Okean O Rocket 3.0 18:47:21 12° SSW 18:51:05 36° W 18:55:11 10° NNW
Cosmos 1386 Rocket 4.5 18:46:44 10° N 18:51:48 64° N 18:51:48 64° N
Cosmos 1553 Rocket 4.0 18:56:06 10° SSW 19:02:10 73° WNW 19:08:18 10° N
ATLAS 5 CENTAUR R/B 4.1 19:00:08 10° NW 19:01:38 14° NNW 19:01:38 14° NNW
Cosmos 1763 Rocket 4.5 19:00:32 10° NW 19:05:27 43° WSW 19:05:59 41° WSW
ISS -0.2 19:09:48 10° W 19:09:56 11° W 19:09:56 11° W
ATLAS 2AS CENTAUR R/B 3.3 19:13:55 10° NW 19:20:36 49° WSW 19:21:32 46° SW
ATLAS CENTAUR R/B 3.7 19:18:21 10° W 19:21:08 25° WNW 19:21:08 25° WNW
Cosmos 1844 Rocket 3.9 19:26:55 10° NW 19:31:01 38° W 19:31:01 38° W
Cosmos 2322 Rocket 4.3 19:49:38 10° WSW 19:51:22 19° WSW 19:51:22 19° WSW
SL-16 R/B 4.3 20:00:46 10° WSW 20:03:27 22° W 20:03:27 22° W
